This is the latest recevied weather packets stored in our database for station/object CE3PA-5. If no packets are shown the sender has not sent any weather packets the latest 10 day(s).
| Time | Temp. | Humidity | Pressure | Rain* | Wind** | Luminosity | Snow |
|---|---|---|---|---|---|---|---|
| 1777857951 | 11.11° C | 20% | 756.7 hPa | - | - | - | - |
| 1777856151 | 10.56° C | 21% | 756.9 hPa | - | - | - | - |
| 1777855252 | 11.11° C | 21% | 756.9 hPa | - | - | - | - |
| 1777853451 | 11.11° C | 21% | 756.9 hPa | - | - | - | - |
| 1777851653 | 11.67° C | 21% | 756.9 hPa | - | - | - | - |
| 1777850753 | 11.67° C | 21% | 756.9 hPa | - | - | - | - |
| 1777849854 | 12.22° C | 21% | 756.9 hPa | - | - | - | - |
| 1777848953 | 12.78° C | 21% | 756.8 hPa | - | - | - | - |
| 1777848053 | 12.78° C | 21% | 756.9 hPa | - | - | - | - |
| 1777847153 | 13.33° C | 21% | 756.8 hPa | - | - | - | - |
| 1777844452 | 15° C | 21% | 756.5 hPa | - | - | - | - |
| 1777841752 | 17.22° C | 20% | 756.5 hPa | - | - | - | - |
| 1777839952 | 18.89° C | 20% | 756.5 hPa | - | - | - | - |
| 1777839051 | 19.44° C | 20% | 756.5 hPa | - | - | - | - |
| 1777838151 | 20.56° C | 19% | 756.5 hPa | - | - | - | - |
| 1777837251 | 20.56° C | 19% | 756.6 hPa | - | - | - | - |
| 1777835451 | 22.22° C | 19% | 756.4 hPa | - | - | - | - |
| 1777834550 | 23.89° C | 19% | 756.4 hPa | - | - | - | - |
| 1777833654 | 24.44° C | 19% | 756.6 hPa | - | - | - | - |
| 1777832750 | 23.33° C | 19% | 756.5 hPa | - | - | - | - |
| 1777830950 | 22.78° C | 19% | 756.6 hPa | - | - | - | - |
| 1777829153 | 25.56° C | 17% | 756.8 hPa | - | - | - | - |
| 1777828253 | 27.78° C | 17% | 757 hPa | - | - | - | - |
| 1777827352 | 27.22° C | 17% | 757.1 hPa | - | - | - | - |
| 1777826453 | 27.78° C | 16% | 757.2 hPa | - | - | - | - |
* Rain since midnight (hover to see other rain measurements)
** Current wind speed in m/s (hover to see current wind gust speed)